Akron Canton, OH

10:06 AM EDT on July 24, 2017 (GMT -0400)
Akron-Canton Regional

Weather History for KCAK - May, 2013

Change the Weather History Date:

Thursday, May 23, 2013

  Actual Average Record
Temperature  
Mean Temperature 58 °F 61 °F  
Max Temperature 73 °F 71 °F 92 °F (1991)
Min Temperature 43 °F 51 °F 32 °F (1967)
Degree Days  
Heating Degree Days 7 6  
Month to date heating degree days 84 188  
Since 1 July heating degree days 5729 6064  
Cooling Degree Days 0 2  
Month to date cooling degree days 58 19  
Year to date cooling degree days 65 25  
Growing Degree Days 8 (Base 50)    
Moisture  
Dew Point 56 °F    
Average Humidity 78    
Maximum Humidity 93    
Minimum Humidity 63    
Precipitation  
Precipitation 0.15 in 0.15 in 1.41 in (2000)
Month to date precipitation 0.92 3.14  
Year to date precipitation 11.66 14.59  
Snow  
Snow 0.00 in 0.00 in - ()
Month to date snowfall 0.0 0.1  
Since 1 July snowfall 47.2 47.5  
Snow Depth 0.00 in    
Sea Level Pressure  
Sea Level Pressure 29.82 in    
Wind  
Wind Speed 13 mph (West)    
Max Wind Speed 24 mph    
Max Gust Speed 32 mph    
Visibility 6 miles    
Events Rain    
T = Trace of Precipitation, MM = Missing Value Source: NWS Daily Summary

Daily Weather History Graph

Daily Weather History Graph

Search for Another Location

Airport or City:

Trip Planner

Search our weather history database for the weather conditions in past years. The results will help you decide how hot, cold, wet, or windy it might be!

Date:

Astronomy

May. 23, 2013 Rise Set
Actual Time 6:01 AM EDT 8:44 PM EDT
Civil Twilight 5:29 AM EDT 9:16 PM EDT
Nautical Twilight 4:49 AM EDT 9:56 PM EDT
Astronomical Twilight 4:03 AM EDT 10:42 PM EDT
Moon 7:14 PM EDT (5/23) 4:45 AM EDT (5/23)
Length of Visible Light 15h 47m
Length of Day
14h 43m
Waxing Gibbous, 97% of the Moon is Illuminated
May 23
Waxing Gibbous
May 25
Full
May 31
Last Quarter
Jun 8
New
Jun 16
First Quarter

Hourly Weather History & Observations

Time (EDT) Temp. Windchill Dew Point Humidity Pressure Visibility Wind Dir Wind Speed Gust Speed Precip Events Conditions
12:51 AM 66.9 °F - 62.1 °F 84% 29.77 in 10.0 mi SSW 11.5 mph - 0.01 in   Overcast
1:51 AM 64.9 °F - 62.1 °F 90% 29.77 in 8.0 mi South 10.4 mph - 0.00 in   Overcast
2:51 AM 66.0 °F - 61.0 °F 84% 29.77 in 10.0 mi SSW 10.4 mph - N/A   Overcast
3:51 AM 64.9 °F - 61.0 °F 87% 29.76 in 9.0 mi SW 9.2 mph - N/A   Overcast
4:51 AM 64.9 °F - 62.1 °F 90% 29.76 in 7.0 mi SSW 10.4 mph - N/A   Overcast
5:51 AM 64.9 °F - 62.1 °F 90% 29.77 in 5.0 mi WSW 6.9 mph - N/A   Overcast
6:13 AM 64.4 °F - 62.6 °F 94% 29.80 in 5.0 mi SSW 4.6 mph - N/A   Overcast
6:51 AM 64.9 °F - 62.1 °F 90% 29.79 in 4.0 mi South 8.1 mph - N/A   Overcast
7:51 AM 66.0 °F - 62.1 °F 87% 29.80 in 4.0 mi SW 10.4 mph - N/A   Mostly Cloudy
8:27 AM 66.2 °F - 60.8 °F 83% 29.83 in 5.0 mi SW 12.7 mph - N/A   Haze
8:51 AM 68.0 °F - 60.1 °F 76% 29.81 in 7.0 mi SW 11.5 mph - N/A   Mostly Cloudy
9:51 AM 68.0 °F - 59.0 °F 73% 29.81 in 7.0 mi WSW 13.8 mph - 0.00 in Rain Light Rain
10:51 AM 69.1 °F - 59.0 °F 70% 29.81 in 7.0 mi SW 10.4 mph - 0.00 in   Overcast
11:51 AM 70.0 °F - 57.9 °F 65% 29.81 in 8.0 mi SW 11.5 mph - N/A   Mostly Cloudy
12:51 PM 64.0 °F - 59.0 °F 84% 29.80 in 4.0 mi West 6.9 mph - 0.11 in Rain Light Rain
1:51 PM 71.1 °F - 60.1 °F 68% 29.78 in 4.0 mi SW 15.0 mph 21.9 mph 0.00 in Rain Light Rain
2:16 PM 69.8 °F - 57.2 °F 64% 29.79 in 8.0 mi SW 16.1 mph - 0.00 in Rain Light Rain
2:51 PM 71.1 °F - 57.9 °F 63% 29.76 in 10.0 mi SW 12.7 mph - 0.00 in   Mostly Cloudy
3:51 PM 68.0 °F - 62.1 °F 81% 29.77 in 10.0 mi West 8.1 mph - 0.02 in   Mostly Cloudy
4:51 PM 68.0 °F - 55.0 °F 63% 29.77 in 10.0 mi WNW 13.8 mph - N/A   Mostly Cloudy
5:51 PM 64.9 °F - 57.0 °F 75% 29.80 in 7.0 mi NNW 20.7 mph - N/A   Overcast
6:17 PM 60.8 °F - 55.4 °F 82% 29.83 in 1.5 mi NNW 15.0 mph 20.7 mph 0.01 in Rain Rain
6:32 PM 57.2 °F - 55.4 °F 94% 29.84 in 2.0 mi NNW 13.8 mph - 0.02 in Rain Light Rain
6:51 PM 55.0 °F - 52.0 °F 89% 29.85 in 2.0 mi North 16.1 mph - 0.02 in Rain Light Rain
7:00 PM 53.6 °F - 51.8 °F 94% 29.86 in 2.0 mi NNW 13.8 mph - 0.00 in Rain Light Rain
7:51 PM 48.0 °F - 46.0 °F 93% 29.90 in 2.0 mi NNW 17.3 mph 21.9 mph 0.00 in   Overcast
8:51 PM 46.0 °F 39.6 °F 43.0 °F 89% 29.94 in 9.0 mi NNW 15.0 mph 24.2 mph 0.00 in   Overcast
9:51 PM 45.0 °F 37.4 °F 41.0 °F 86% 29.96 in 7.0 mi NNW 18.4 mph 25.3 mph N/A   Overcast
10:51 PM 44.1 °F 36.2 °F 41.0 °F 89% 29.99 in 7.0 mi North 18.4 mph 26.5 mph N/A   Overcast
11:51 PM 43.0 °F 35.1 °F 39.9 °F 89% 30.01 in 5.0 mi NNW 17.3 mph 27.6 mph N/A   Overcast